Time,TemperatureF,DewpointF,PressureIn,WindDirection,WindDirectionDegrees,WindSpeedMPH,WindSpeedGustMPH,Humidity,HourlyPrecipIn,Conditions,Clouds,dailyrainin,SoftwareType,DateUTC
2013-11-06 00:01:00,52.2,37.4,30.17,NW,315,0.0,172.0,57,0.00,,,0.00,meteohub,2013-11-06 08:01:00,
2013-11-06 00:06:00,52.2,37.4,30.18,NW,315,0.0,172.0,57,0.00,,,0.00,meteohub,2013-11-06 08:06:00,
2013-11-06 00:11:00,52.0,36.9,30.18,NW,315,0.0,172.0,56,0.00,,,0.00,meteohub,2013-11-06 08:11:00,
2013-11-06 00:16:00,51.8,37.0,30.18,NW,315,0.0,0.0,57,0.00,,,0.00,meteohub,2013-11-06 08:16:00,
2013-11-06 00:21:00,51.6,36.0,30.18,NW,315,0.0,0.0,55,0.00,,,0.00,meteohub,2013-11-06 08:21:00,
2013-11-06 00:26:00,51.4,35.8,30.18,NW,315,0.0,0.0,55,0.00,,,0.00,meteohub,2013-11-06 08:26:00,
2013-11-06 00:31:00,51.1,36.0,30.19,NW,315,0.0,0.0,56,0.00,,,0.00,meteohub,2013-11-06 08:31:00,
2013-11-06 00:37:00,50.9,35.8,30.18,SW,225,0.0,1.0,56,0.00,,,0.00,meteohub,2013-11-06 08:37:00,
2013-11-06 00:42:00,50.7,35.6,30.18,SW,225,0.0,174.0,56,0.00,,,0.00,meteohub,2013-11-06 08:42:00,
2013-11-06 00:47:00,50.5,36.0,30.18,SW,225,0.0,174.0,57,0.00,,,0.00,meteohub,2013-11-06 08:47:00,
2013-11-06 00:52:00,50.4,35.8,30.18,North,0,0.0,174.0,57,0.00,,,0.00,meteohub,2013-11-06 08:52:00,
2013-11-06 00:57:00,50.0,35.8,30.19,North,0,0.0,0.0,58,0.00,,,0.00,meteohub,2013-11-06 08:57:00,
2013-11-06 01:02:00,50.0,36.3,30.18,North,0,0.0,0.0,59,0.00,,,0.00,meteohub,2013-11-06 09:02:00,
2013-11-06 01:07:00,50.0,36.3,30.19,SSW,203,172.0,172.0,59,0.00,,,0.00,meteohub,2013-11-06 09:07:00,
2013-11-06 01:12:00,49.5,36.5,30.18,North,0,0.0,172.0,61,0.00,,,0.00,meteohub,2013-11-06 09:12:00,
2013-11-06 01:17:00,49.3,36.9,30.19,North,0,0.0,172.0,62,0.00,,,0.00,meteohub,2013-11-06 09:17:00,
2013-11-06 01:22:00,49.1,37.0,30.19,North,0,0.0,172.0,63,0.00,,,0.00,meteohub,2013-11-06 09:22:00,
2013-11-06 01:27:00,48.9,36.9,30.19,North,0,0.0,0.0,63,0.00,,,0.00,meteohub,2013-11-06 09:27:00,
2013-11-06 01:32:00,48.9,37.2,30.19,North,0,0.0,0.0,64,0.00,,,0.00,meteohub,2013-11-06 09:32:00,
2013-11-06 01:37:00,48.9,37.2,30.19,North,0,0.0,1.0,64,0.00,,,0.00,meteohub,2013-11-06 09:37:00,
2013-11-06 01:42:00,48.9,37.2,30.19,SSW,203,172.0,172.0,64,0.00,,,0.00,meteohub,2013-11-06 09:42:00,
2013-11-06 01:47:00,48.7,37.6,30.19,North,0,0.0,172.0,65,0.00,,,0.00,meteohub,2013-11-06 09:47:00,
2013-11-06 01:52:00,48.7,37.6,30.19,NE,45,0.0,172.0,65,0.00,,,0.00,meteohub,2013-11-06 09:52:00,
2013-11-06 01:57:00,48.6,36.9,30.19,NE,45,0.0,172.0,64,0.00,,,0.00,meteohub,2013-11-06 09:57:00,
2013-11-06 02:02:00,48.6,36.9,30.19,North,0,0.0,1.0,64,0.00,,,0.00,meteohub,2013-11-06 10:02:00,
2013-11-06 02:07:00,48.2,36.7,30.19,North,0,1.0,1.0,64,0.00,,,0.00,meteohub,2013-11-06 10:07:00,
2013-11-06 02:12:00,48.0,36.5,30.19,East,90,0.0,2.0,64,0.00,,,0.00,meteohub,2013-11-06 10:12:00,
2013-11-06 02:17:00,47.8,36.3,30.19,East,90,0.0,2.0,64,0.00,,,0.00,meteohub,2013-11-06 10:17:00,
2013-11-06 02:22:00,47.7,36.1,30.19,North,0,0.0,2.0,64,0.00,,,0.00,meteohub,2013-11-06 10:22:00,
2013-11-06 02:27:00,47.5,36.0,30.19,North,0,0.0,2.0,64,0.00,,,0.00,meteohub,2013-11-06 10:27:00,
2013-11-06 02:32:00,47.3,36.1,30.19,North,0,1.0,1.0,65,0.00,,,0.00,meteohub,2013-11-06 10:32:00,
2013-11-06 02:37:00,47.3,36.1,30.19,North,0,0.0,1.0,65,0.00,,,0.00,meteohub,2013-11-06 10:37:00,
2013-11-06 02:42:00,47.1,36.3,30.19,North,0,0.0,1.0,66,0.00,,,0.00,meteohub,2013-11-06 10:42:00,
2013-11-06 02:47:00,47.1,36.3,30.19,SSW,203,172.0,172.0,66,0.00,,,0.00,meteohub,2013-11-06 10:47:00,
2013-11-06 02:52:00,47.3,36.5,30.19,NE,45,0.0,172.0,66,0.00,,,0.00,meteohub,2013-11-06 10:52:00,
2013-11-06 02:57:00,47.3,36.5,30.19,NE,45,0.0,172.0,66,0.00,,,0.00,meteohub,2013-11-06 10:57:00,
2013-11-06 03:02:00,47.3,36.5,30.19,NE,45,0.0,172.0,66,0.00,,,0.00,meteohub,2013-11-06 11:02:00,
2013-11-06 03:07:00,47.3,36.5,30.19,NE,45,0.0,0.0,66,0.00,,,0.00,meteohub,2013-11-06 11:07:00,
2013-11-06 03:12:00,47.3,36.1,30.19,NE,45,0.0,0.0,65,0.00,,,0.00,meteohub,2013-11-06 11:12:00,
2013-11-06 03:17:00,47.1,36.0,30.19,NE,45,0.0,0.0,65,0.00,,,0.00,meteohub,2013-11-06 11:17:00,
2013-11-06 03:22:00,46.9,36.1,30.19,NE,45,0.0,0.0,66,0.00,,,0.00,meteohub,2013-11-06 11:22:00,
2013-11-06 03:27:00,46.9,36.1,30.18,East,90,0.0,0.0,66,0.00,,,0.00,meteohub,2013-11-06 11:27:00,
2013-11-06 03:32:00,46.9,36.1,30.18,East,90,0.0,0.0,66,0.00,,,0.00,meteohub,2013-11-06 11:32:00,
2013-11-06 03:37:00,46.8,36.0,30.18,East,90,0.0,173.0,66,0.00,,,0.00,meteohub,2013-11-06 11:37:00,
2013-11-06 03:42:00,46.9,36.1,30.18,East,90,0.0,173.0,66,0.00,,,0.00,meteohub,2013-11-06 11:42:00,
2013-11-06 03:47:00,46.9,36.1,30.18,East,90,0.0,173.0,66,0.00,,,0.00,meteohub,2013-11-06 11:47:00,
2013-11-06 03:52:00,46.9,36.1,30.19,East,90,0.0,0.0,66,0.00,,,0.00,meteohub,2013-11-06 11:52:00,
2013-11-06 03:57:00,47.1,36.7,30.19,North,0,0.0,173.0,67,0.00,,,0.00,meteohub,2013-11-06 11:57:00,
2013-11-06 04:02:00,47.1,36.7,30.19,NE,45,0.0,173.0,67,0.00,,,0.00,meteohub,2013-11-06 12:02:00,
2013-11-06 04:07:00,47.1,36.7,30.19,NE,45,0.0,173.0,67,0.00,,,0.00,meteohub,2013-11-06 12:07:00,
2013-11-06 04:12:00,47.3,36.5,30.19,NE,45,0.0,0.0,66,0.00,,,0.00,meteohub,2013-11-06 12:12:00,
2013-11-06 04:17:00,47.5,36.7,30.19,NE,45,2.0,0.0,66,0.00,,,0.00,meteohub,2013-11-06 12:17:00,
2013-11-06 04:22:00,47.5,36.7,30.19,NE,45,1.0,2.0,66,0.00,,,0.00,meteohub,2013-11-06 12:22:00,
2013-11-06 04:27:00,47.5,36.7,30.19,NE,45,2.0,2.0,66,0.00,,,0.00,meteohub,2013-11-06 12:27:00,
2013-11-06 04:32:00,47.5,36.7,30.20,North,0,2.0,2.0,66,0.00,,,0.00,meteohub,2013-11-06 12:32:00,
2013-11-06 04:37:00,47.5,36.3,30.20,NE,45,2.0,2.0,65,0.00,,,0.00,meteohub,2013-11-06 12:37:00,
2013-11-06 04:42:00,47.5,36.3,30.20,East,90,1.0,2.0,65,0.00,,,0.00,meteohub,2013-11-06 12:42:00,
2013-11-06 04:47:00,47.3,36.1,30.20,North,0,0.0,2.0,65,0.00,,,0.00,meteohub,2013-11-06 12:47:00,
2013-11-06 04:52:00,47.1,36.0,30.20,North,0,0.0,2.0,65,0.00,,,0.00,meteohub,2013-11-06 12:52:00,
2013-11-06 04:57:00,46.9,35.8,30.20,North,0,0.0,1.0,65,0.00,,,0.00,meteohub,2013-11-06 12:57:00,
2013-11-06 05:02:00,46.9,35.8,30.19,North,0,0.0,1.0,65,0.00,,,0.00,meteohub,2013-11-06 13:02:00,
2013-11-06 05:07:00,46.8,35.6,30.20,North,0,0.0,1.0,65,0.00,,,0.00,meteohub,2013-11-06 13:07:00,
2013-11-06 05:12:00,46.6,35.4,30.20,North,0,0.0,1.0,65,0.00,,,0.00,meteohub,2013-11-06 13:12:00,
2013-11-06 05:17:00,46.6,35.4,30.20,North,0,0.0,0.0,65,0.00,,,0.00,meteohub,2013-11-06 13:17:00,
2013-11-06 05:22:00,46.6,35.8,30.20,North,0,0.0,0.0,66,0.00,,,0.00,meteohub,2013-11-06 13:22:00,
2013-11-06 05:27:00,46.6,35.8,30.20,North,0,1.0,1.0,66,0.00,,,0.00,meteohub,2013-11-06 13:27:00,
2013-11-06 05:32:00,46.6,35.8,30.20,North,0,0.0,1.0,66,0.00,,,0.00,meteohub,2013-11-06 13:32:00,
2013-11-06 05:37:00,46.6,36.1,30.20,North,0,1.0,1.0,67,0.00,,,0.00,meteohub,2013-11-06 13:37:00,
2013-11-06 05:42:00,46.6,35.8,30.20,North,0,1.0,1.0,66,0.00,,,0.00,meteohub,2013-11-06 13:42:00,
2013-11-06 05:47:00,46.6,35.8,30.20,North,0,0.0,1.0,66,0.00,,,0.00,meteohub,2013-11-06 13:47:00,
2013-11-06 05:52:00,46.6,35.8,30.20,North,0,0.0,1.0,66,0.00,,,0.00,meteohub,2013-11-06 13:52:00,
2013-11-06 05:57:00,46.6,35.8,30.20,NE,45,1.0,2.0,66,0.00,,,0.00,meteohub,2013-11-06 13:57:00,
2013-11-06 06:02:00,46.6,35.8,30.20,NE,45,1.0,2.0,66,0.00,,,0.00,meteohub,2013-11-06 14:02:00,
2013-11-06 06:07:00,46.4,35.6,30.20,North,0,1.0,2.0,66,0.00,,,0.00,meteohub,2013-11-06 14:07:00,
2013-11-06 06:12:00,46.4,35.6,30.20,NE,45,1.0,2.0,66,0.00,,,0.00,meteohub,2013-11-06 14:12:00,
2013-11-06 06:17:00,46.2,35.4,30.20,NE,45,1.0,2.0,66,0.00,,,0.00,meteohub,2013-11-06 14:17:00,
2013-11-06 06:22:00,46.0,35.2,30.20,NE,45,1.0,2.0,66,0.00,,,0.00,meteohub,2013-11-06 14:22:00,
2013-11-06 06:27:00,46.0,35.2,30.20,NE,45,1.0,2.0,66,0.00,,,0.00,meteohub,2013-11-06 14:27:00,
2013-11-06 06:32:00,45.9,35.6,30.20,NE,45,0.0,2.0,67,0.00,,,0.00,meteohub,2013-11-06 14:32:00,
2013-11-06 06:37:00,45.9,35.6,30.21,NE,45,0.0,1.0,67,0.00,,,0.00,meteohub,2013-11-06 14:37:00,
2013-11-06 06:42:00,45.9,36.0,30.21,NE,45,0.0,1.0,68,0.00,,,0.00,meteohub,2013-11-06 14:42:00,
2013-11-06 06:47:00,46.0,36.1,30.20,NE,45,0.0,0.0,68,0.00,,,0.00,meteohub,2013-11-06 14:47:00,
2013-11-06 06:52:00,46.0,35.8,30.20,NE,45,1.0,2.0,67,0.00,,,0.00,meteohub,2013-11-06 14:52:00,
2013-11-06 06:57:00,46.0,35.8,30.20,North,0,1.0,2.0,67,0.00,,,0.00,meteohub,2013-11-06 14:57:00,
2013-11-06 07:02:00,46.0,35.8,30.21,North,0,0.0,2.0,67,0.00,,,0.00,meteohub,2013-11-06 15:02:00,
2013-11-06 07:07:00,46.0,35.8,30.21,North,0,1.0,2.0,67,0.00,,,0.00,meteohub,2013-11-06 15:07:00,
2013-11-06 07:12:00,46.0,35.8,30.21,North,0,0.0,1.0,67,0.00,,,0.00,meteohub,2013-11-06 15:12:00,
2013-11-06 07:17:00,46.0,35.8,30.21,NE,45,0.0,2.0,67,0.00,,,0.00,meteohub,2013-11-06 15:17:00,
2013-11-06 07:22:00,46.0,35.8,30.22,NE,45,0.0,2.0,67,0.00,,,0.00,meteohub,2013-11-06 15:22:00,
2013-11-06 07:27:00,46.6,36.1,30.22,NE,45,2.0,2.0,67,0.00,,,0.00,meteohub,2013-11-06 15:27:00,
2013-11-06 07:32:00,46.8,36.3,30.22,NE,45,2.0,2.0,67,0.00,,,0.00,meteohub,2013-11-06 15:32:00,
2013-11-06 07:37:00,47.1,36.3,30.22,NE,45,2.0,2.0,66,0.00,,,0.00,meteohub,2013-11-06 15:37:00,
2013-11-06 07:42:00,47.3,36.5,30.22,NE,45,2.0,2.0,66,0.00,,,0.00,meteohub,2013-11-06 15:42:00,
2013-11-06 07:47:00,47.7,36.9,30.22,North,0,2.0,2.0,66,0.00,,,0.00,meteohub,2013-11-06 15:47:00,
2013-11-06 07:52:00,48.2,37.0,30.22,North,0,2.0,4.0,65,0.00,,,0.00,meteohub,2013-11-06 15:52:00,
2013-11-06 07:57:00,48.7,37.6,30.22,NE,45,2.0,4.0,65,0.00,,,0.00,meteohub,2013-11-06 15:57:00,
2013-11-06 08:02:00,49.3,37.6,30.22,NE,45,2.0,4.0,64,0.00,,,0.00,meteohub,2013-11-06 16:02:00,
2013-11-06 08:07:00,49.8,37.8,30.23,NE,45,2.0,3.0,63,0.00,,,0.00,meteohub,2013-11-06 16:07:00,
2013-11-06 08:12:00,50.4,38.3,30.23,North,0,2.0,3.0,63,0.00,,,0.00,meteohub,2013-11-06 16:12:00,
2013-11-06 08:17:00,50.9,38.3,30.23,North,0,2.0,3.0,62,0.00,,,0.00,meteohub,2013-11-06 16:17:00,
2013-11-06 08:22:00,51.4,38.5,30.23,NE,45,2.0,3.0,61,0.00,,,0.00,meteohub,2013-11-06 16:22:00,
2013-11-06 08:27:00,52.0,38.5,30.23,North,0,2.0,3.0,60,0.00,,,0.00,meteohub,2013-11-06 16:27:00,
2013-11-06 08:32:00,52.5,38.7,30.24,North,0,2.0,3.0,59,0.00,,,0.00,meteohub,2013-11-06 16:32:00,
2013-11-06 08:37:00,53.4,39.0,30.23,NE,45,2.0,2.0,58,0.00,,,0.00,meteohub,2013-11-06 16:37:00,
2013-11-06 08:42:00,54.0,39.0,30.23,NE,45,1.0,2.0,57,0.00,,,0.00,meteohub,2013-11-06 16:42:00,
2013-11-06 08:47:00,54.5,39.2,30.24,NE,45,2.0,2.0,56,0.00,,,0.00,meteohub,2013-11-06 16:47:00,
2013-11-06 08:52:00,55.2,39.4,30.24,NE,45,2.0,2.0,55,0.00,,,0.00,meteohub,2013-11-06 16:52:00,
2013-11-06 08:57:00,55.9,39.0,30.24,NE,45,0.0,2.0,53,0.00,,,0.00,meteohub,2013-11-06 16:57:00,
2013-11-06 09:02:00,56.3,39.4,30.24,East,90,2.0,2.0,53,0.00,,,0.00,meteohub,2013-11-06 17:02:00,
2013-11-06 09:07:00,57.0,39.6,30.24,NE,45,2.0,2.0,52,0.00,,,0.00,meteohub,2013-11-06 17:07:00,
2013-11-06 09:12:00,57.7,39.2,30.24,North,0,2.0,2.0,50,0.00,,,0.00,meteohub,2013-11-06 17:12:00,
2013-11-06 09:17:00,58.3,39.2,30.24,NE,45,1.0,3.0,49,0.00,,,0.00,meteohub,2013-11-06 17:17:00,
2013-11-06 09:22:00,58.8,39.7,30.24,North,0,1.0,3.0,49,0.00,,,0.00,meteohub,2013-11-06 17:22:00,
2013-11-06 09:27:00,59.4,39.7,30.24,North,0,2.0,3.0,48,0.00,,,0.00,meteohub,2013-11-06 17:27:00,
2013-11-06 09:32:00,59.5,39.9,30.24,NE,45,1.0,2.0,48,0.00,,,0.00,meteohub,2013-11-06 17:32:00,
2013-11-06 09:37:00,59.9,39.0,30.24,West,270,2.0,3.0,46,0.00,,,0.00,meteohub,2013-11-06 17:37:00,
2013-11-06 09:42:00,60.4,39.6,30.24,NE,45,1.0,3.0,46,0.00,,,0.00,meteohub,2013-11-06 17:42:00,
2013-11-06 09:47:00,60.8,39.9,30.24,SW,225,2.0,3.0,46,0.00,,,0.00,meteohub,2013-11-06 17:47:00,
2013-11-06 09:52:00,61.3,39.7,30.23,WNW,293,1.0,2.0,45,0.00,,,0.00,meteohub,2013-11-06 17:52:00,
2013-11-06 09:57:00,61.9,39.7,30.24,South,180,2.0,2.0,44,0.00,,,0.00,meteohub,2013-11-06 17:57:00,
2013-11-06 10:02:00,62.4,39.6,30.24,North,0,1.0,2.0,43,0.00,,,0.00,meteohub,2013-11-06 18:02:00,
2013-11-06 10:07:00,63.5,39.9,30.23,ESE,113,2.0,172.0,42,0.00,,,0.00,meteohub,2013-11-06 18:07:00,
2013-11-06 10:12:00,64.4,40.1,30.23,North,0,1.0,172.0,41,0.00,,,0.00,meteohub,2013-11-06 18:12:00,
2013-11-06 10:17:00,65.3,40.3,30.23,SSW,203,172.0,173.0,40,0.00,,,0.00,meteohub,2013-11-06 18:17:00,
2013-11-06 10:22:00,66.0,40.3,30.23,SSW,203,173.0,173.0,39,0.00,,,0.00,meteohub,2013-11-06 18:22:00,
2013-11-06 10:33:00,67.8,39.9,30.22,SW,225,3.0,173.0,36,0.00,,,0.00,meteohub,2013-11-06 18:33:00,
2013-11-06 10:38:00,68.2,39.6,30.23,NE,45,2.0,175.0,35,0.00,,,0.00,meteohub,2013-11-06 18:38:00,
2013-11-06 10:43:00,68.5,40.5,30.23,SSW,203,172.0,175.0,36,0.00,,,0.00,meteohub,2013-11-06 18:43:00,
2013-11-06 10:48:00,69.1,40.3,30.22,SSW,203,174.0,175.0,35,0.00,,,0.00,meteohub,2013-11-06 18:48:00,
2013-11-06 10:56:00,71.1,40.5,30.22,North,0,0.0,175.0,33,0.00,,,0.00,meteohub,2013-11-06 18:56:00,
2013-11-06 11:01:00,71.6,41.0,30.22,SSW,203,172.0,175.0,33,0.00,,,0.00,meteohub,2013-11-06 19:01:00,
2013-11-06 11:07:00,71.6,40.1,30.22,North,0,2.0,175.0,32,0.00,,,0.00,meteohub,2013-11-06 19:07:00,
2013-11-06 11:12:00,72.1,39.9,30.22,SSW,203,172.0,175.0,31,0.00,,,0.00,meteohub,2013-11-06 19:12:00,
2013-11-06 11:17:00,72.3,39.9,30.22,SE,135,2.0,173.0,31,0.00,,,0.00,meteohub,2013-11-06 19:17:00,
2013-11-06 11:22:00,72.5,39.4,30.22,South,180,2.0,174.0,30,0.00,,,0.00,meteohub,2013-11-06 19:22:00,
2013-11-06 11:27:00,72.9,39.6,30.22,North,0,1.0,174.0,30,0.00,,,0.00,meteohub,2013-11-06 19:27:00,
2013-11-06 11:32:00,73.0,38.8,30.21,NE,45,2.0,174.0,29,0.00,,,0.00,meteohub,2013-11-06 19:32:00,
2013-11-06 11:37:00,73.4,38.3,30.21,SSW,203,174.0,174.0,28,0.00,,,0.00,meteohub,2013-11-06 19:37:00,
2013-11-06 11:42:00,73.6,39.4,30.22,SSW,203,172.0,174.0,29,0.00,,,0.00,meteohub,2013-11-06 19:42:00,
2013-11-06 11:47:00,73.8,38.7,30.21,SE,135,2.0,174.0,28,0.00,,,0.00,meteohub,2013-11-06 19:47:00,
2013-11-06 11:52:00,74.1,39.0,30.21,South,180,1.0,174.0,28,0.00,,,0.00,meteohub,2013-11-06 19:52:00,
2013-11-06 11:57:00,74.3,39.0,30.21,NE,45,2.0,172.0,28,0.00,,,0.00,meteohub,2013-11-06 19:57:00,
2013-11-06 12:02:00,74.3,39.0,30.21,NE,45,2.0,2.0,28,0.00,,,0.00,meteohub,2013-11-06 20:02:00,
2013-11-06 12:07:00,74.3,39.0,30.20,NE,45,2.0,2.0,28,0.00,,,0.00,meteohub,2013-11-06 20:07:00,
2013-11-06 12:12:00,75.2,38.8,30.20,North,0,2.0,2.0,27,0.00,,,0.00,meteohub,2013-11-06 20:12:00,
2013-11-06 12:17:00,75.4,39.0,30.20,East,90,2.0,172.0,27,0.00,,,0.00,meteohub,2013-11-06 20:17:00,
2013-11-06 12:22:00,75.6,38.3,30.20,SW,225,2.0,172.0,26,0.00,,,0.00,meteohub,2013-11-06 20:22:00,
2013-11-06 12:27:00,75.6,38.3,30.19,SSW,203,174.0,174.0,26,0.00,,,0.00,meteohub,2013-11-06 20:27:00,
2013-11-06 12:32:00,75.6,38.3,30.19,West,270,2.0,174.0,26,0.00,,,0.00,meteohub,2013-11-06 20:32:00,
2013-11-06 12:37:00,75.4,38.1,30.19,NE,45,1.0,174.0,26,0.00,,,0.00,meteohub,2013-11-06 20:37:00,
2013-11-06 12:42:00,75.4,38.1,30.19,NE,45,2.0,174.0,26,0.00,,,0.00,meteohub,2013-11-06 20:42:00,
2013-11-06 12:47:00,75.4,38.1,30.19,NE,45,1.0,174.0,26,0.00,,,0.00,meteohub,2013-11-06 20:47:00,
2013-11-06 12:52:00,75.4,38.1,30.19,SSW,203,174.0,174.0,26,0.00,,,0.00,meteohub,2013-11-06 20:52:00,
2013-11-06 12:57:00,75.2,37.0,30.19,SW,225,2.0,174.0,25,0.00,,,0.00,meteohub,2013-11-06 20:57:00,
2013-11-06 13:02:00,75.0,37.8,30.18,North,0,2.0,174.0,26,0.00,,,0.00,meteohub,2013-11-06 21:02:00,
2013-11-06 13:07:00,75.0,37.8,30.18,North,0,2.0,174.0,26,0.00,,,0.00,meteohub,2013-11-06 21:07:00,
2013-11-06 13:12:00,76.3,37.9,30.18,SE,135,2.0,172.0,25,0.00,,,0.00,meteohub,2013-11-06 21:12:00,
2013-11-06 13:17:00,76.6,38.1,30.18,SSW,203,172.0,174.0,25,0.00,,,0.00,meteohub,2013-11-06 21:17:00,
2013-11-06 13:22:00,77.0,38.5,30.17,SSW,203,172.0,174.0,25,0.00,,,0.00,meteohub,2013-11-06 21:22:00,
2013-11-06 13:27:00,77.0,38.5,30.17,SSW,203,174.0,174.0,25,0.00,,,0.00,meteohub,2013-11-06 21:27:00,
2013-11-06 13:37:00,77.2,38.7,30.17,SSW,203,172.0,175.0,25,0.00,,,0.00,meteohub,2013-11-06 21:37:00,
2013-11-06 13:42:00,77.4,37.8,30.17,SSW,203,172.0,175.0,24,0.00,,,0.00,meteohub,2013-11-06 21:42:00,
2013-11-06 14:04:00,77.4,36.7,30.16,NE,45,1.0,175.0,23,0.00,,,0.00,meteohub,2013-11-06 22:04:00,
2013-11-06 14:09:00,78.1,36.1,30.16,SW,225,2.0,175.0,22,0.00,,,0.00,meteohub,2013-11-06 22:09:00,
2013-11-06 14:14:00,78.1,36.1,30.16,SSW,203,174.0,174.0,22,0.00,,,0.00,meteohub,2013-11-06 22:14:00,
2013-11-06 14:19:00,77.9,34.9,30.16,SSW,203,173.0,173.0,21,0.00,,,0.00,meteohub,2013-11-06 22:19:00,
2013-11-06 14:24:00,77.9,36.0,30.15,South,180,2.0,174.0,22,0.00,,,0.00,meteohub,2013-11-06 22:24:00,
2013-11-06 14:29:00,77.9,34.9,30.16,NW,315,1.0,174.0,21,0.00,,,0.00,meteohub,2013-11-06 22:29:00,
2013-11-06 14:34:00,77.9,34.9,30.15,West,270,2.0,173.0,21,0.00,,,0.00,meteohub,2013-11-06 22:34:00,
2013-11-06 14:39:00,77.9,33.6,30.15,SSW,203,172.0,173.0,20,0.00,,,0.00,meteohub,2013-11-06 22:39:00,
2013-11-06 14:44:00,77.9,33.6,30.14,NW,315,1.0,174.0,20,0.00,,,0.00,meteohub,2013-11-06 22:44:00,
2013-11-06 14:49:00,77.9,33.6,30.15,NE,45,3.0,174.0,20,0.00,,,0.00,meteohub,2013-11-06 22:49:00,
2013-11-06 14:54:00,77.2,33.1,30.15,NE,45,2.0,174.0,20,0.00,,,0.00,meteohub,2013-11-06 22:54:00,
2013-11-06 15:00:00,77.0,34.2,30.14,North,0,1.0,174.0,21,0.00,,,0.00,meteohub,2013-11-06 23:00:00,
2013-11-06 15:05:00,77.0,34.2,30.14,North,0,1.0,3.0,21,0.00,,,0.00,meteohub,2013-11-06 23:05:00,
2013-11-06 15:10:00,76.5,32.4,30.14,SW,225,2.0,2.0,20,0.00,,,0.00,meteohub,2013-11-06 23:10:00,
2013-11-06 15:15:00,76.1,32.2,30.14,NE,45,2.0,172.0,20,0.00,,,0.00,meteohub,2013-11-06 23:15:00,
2013-11-06 15:20:00,75.4,32.7,30.14,SW,225,1.0,173.0,21,0.00,,,0.00,meteohub,2013-11-06 23:20:00,
2013-11-06 15:25:00,75.2,33.8,30.14,SSW,203,172.0,173.0,22,0.00,,,0.00,meteohub,2013-11-06 23:25:00,
2013-11-06 15:30:00,74.5,33.1,30.14,NE,45,2.0,173.0,22,0.00,,,0.00,meteohub,2013-11-06 23:30:00,
2013-11-06 15:35:00,74.1,32.9,30.14,SE,135,1.0,172.0,22,0.00,,,0.00,meteohub,2013-11-06 23:35:00,
2013-11-06 15:40:00,73.9,33.8,30.14,SE,135,1.0,173.0,23,0.00,,,0.00,meteohub,2013-11-06 23:40:00,
2013-11-06 15:45:00,73.8,34.7,30.14,SE,135,0.0,173.0,24,0.00,,,0.00,meteohub,2013-11-06 23:45:00,
2013-11-06 15:50:00,73.8,34.7,30.14,SSW,203,173.0,173.0,24,0.00,,,0.00,meteohub,2013-11-06 23:50:00,
2013-11-06 15:55:00,73.9,34.9,30.14,SE,135,1.0,173.0,24,0.00,,,0.00,meteohub,2013-11-06 23:55:00,
2013-11-06 16:00:00,73.9,33.8,30.14,NE,45,0.0,173.0,23,0.00,,,0.00,meteohub,2013-11-07 00:00:00,
2013-11-06 16:06:00,73.9,33.8,30.13,NE,45,0.0,173.0,23,0.00,,,0.00,meteohub,2013-11-07 00:06:00,
2013-11-06 16:11:00,73.6,33.4,30.13,SE,135,0.0,172.0,23,0.00,,,0.00,meteohub,2013-11-07 00:11:00,
2013-11-06 16:16:00,73.4,35.4,30.13,SE,135,0.0,172.0,25,0.00,,,0.00,meteohub,2013-11-07 00:16:00,
2013-11-06 16:21:00,73.2,35.2,30.13,SSW,203,173.0,173.0,25,0.00,,,0.00,meteohub,2013-11-07 00:21:00,
2013-11-06 16:26:00,72.3,34.5,30.13,SSW,203,173.0,173.0,25,0.00,,,0.00,meteohub,2013-11-07 00:26:00,
2013-11-06 16:31:00,71.6,35.8,30.13,SE,135,0.0,173.0,27,0.00,,,0.00,meteohub,2013-11-07 00:31:00,
2013-11-06 16:36:00,70.7,36.0,30.13,SE,135,0.0,173.0,28,0.00,,,0.00,meteohub,2013-11-07 00:36:00,
2013-11-06 16:41:00,69.8,36.1,30.13,SE,135,0.0,173.0,29,0.00,,,0.00,meteohub,2013-11-07 00:41:00,
2013-11-06 16:46:00,69.1,36.3,30.13,SE,135,0.0,173.0,30,0.00,,,0.00,meteohub,2013-11-07 00:46:00,
2013-11-06 16:51:00,68.4,35.8,30.13,SE,135,0.0,173.0,30,0.00,,,0.00,meteohub,2013-11-07 00:51:00,
2013-11-06 16:56:00,67.8,36.9,30.13,SE,135,0.0,173.0,32,0.00,,,0.00,meteohub,2013-11-07 00:56:00,
2013-11-06 17:01:00,67.3,36.5,30.13,SE,135,0.0,0.0,32,0.00,,,0.00,meteohub,2013-11-07 01:01:00,
2013-11-06 17:06:00,67.3,36.5,30.13,SE,135,0.0,0.0,32,0.00,,,0.00,meteohub,2013-11-07 01:06:00,
2013-11-06 17:12:00,66.0,36.9,30.13,SSW,203,173.0,0.0,34,0.00,,,0.00,meteohub,2013-11-07 01:12:00,
2013-11-06 17:17:00,65.5,37.0,30.13,SSW,203,173.0,173.0,35,0.00,,,0.00,meteohub,2013-11-07 01:17:00,
2013-11-06 17:22:00,64.9,37.4,30.13,SSW,203,173.0,173.0,36,0.00,,,0.00,meteohub,2013-11-07 01:22:00,
2013-11-06 17:27:00,64.0,39.9,30.12,SSW,203,173.0,173.0,41,0.00,,,0.00,meteohub,2013-11-07 01:27:00,
2013-11-06 17:32:00,63.7,39.6,30.13,SSW,203,173.0,173.0,41,0.00,,,0.00,meteohub,2013-11-07 01:32:00,
2013-11-06 17:37:00,63.1,39.7,30.13,SE,135,0.0,173.0,42,0.00,,,0.00,meteohub,2013-11-07 01:37:00,
2013-11-06 17:42:00,63.1,39.7,30.13,SSW,203,173.0,173.0,42,0.00,,,0.00,meteohub,2013-11-07 01:42:00,
2013-11-06 17:48:00,62.2,39.4,30.13,SE,135,0.0,173.0,43,0.00,,,0.00,meteohub,2013-11-07 01:48:00,
2013-11-06 17:53:00,61.9,39.2,30.13,SSW,203,173.0,173.0,43,0.00,,,0.00,meteohub,2013-11-07 01:53:00,
2013-11-06 17:58:00,61.5,39.4,30.13,SE,135,0.0,173.0,44,0.00,,,0.00,meteohub,2013-11-07 01:58:00,
2013-11-06 18:03:00,61.3,39.2,30.13,SSW,203,173.0,173.0,44,0.00,,,0.00,meteohub,2013-11-07 02:03:00,
2013-11-06 18:08:00,61.3,39.2,30.13,SSW,203,173.0,173.0,44,0.00,,,0.00,meteohub,2013-11-07 02:08:00,
2013-11-06 18:13:00,60.4,39.6,30.14,SSW,203,173.0,173.0,46,0.00,,,0.00,meteohub,2013-11-07 02:13:00,
2013-11-06 18:18:00,60.3,39.4,30.14,SE,135,0.0,173.0,46,0.00,,,0.00,meteohub,2013-11-07 02:18:00,
2013-11-06 18:23:00,59.9,40.1,30.14,SE,135,0.0,173.0,48,0.00,,,0.00,meteohub,2013-11-07 02:23:00,
2013-11-06 18:28:00,59.7,40.5,30.14,SE,135,0.0,173.0,49,0.00,,,0.00,meteohub,2013-11-07 02:28:00,
2013-11-06 18:33:00,59.5,40.3,30.14,SSW,203,173.0,173.0,49,0.00,,,0.00,meteohub,2013-11-07 02:33:00,
2013-11-06 18:38:00,59.4,41.2,30.14,SSW,203,173.0,173.0,51,0.00,,,0.00,meteohub,2013-11-07 02:38:00,
2013-11-06 18:44:00,59.4,41.2,30.14,SE,135,0.0,173.0,51,0.00,,,0.00,meteohub,2013-11-07 02:44:00,
2013-11-06 18:49:00,59.2,41.0,30.14,SSW,203,173.0,173.0,51,0.00,,,0.00,meteohub,2013-11-07 02:49:00,
2013-11-06 18:57:00,59.0,41.4,30.14,SSW,203,173.0,173.0,52,0.00,,,0.00,meteohub,2013-11-07 02:57:00,
2013-11-06 19:02:00,59.0,41.4,30.14,SSW,203,173.0,173.0,52,0.00,,,0.00,meteohub,2013-11-07 03:02:00,
2013-11-06 19:07:00,59.0,41.4,30.15,SSW,203,173.0,173.0,52,0.00,,,0.00,meteohub,2013-11-07 03:07:00,
2013-11-06 19:12:00,58.6,41.5,30.15,SSW,203,173.0,173.0,53,0.00,,,0.00,meteohub,2013-11-07 03:12:00,
2013-11-06 19:17:00,58.5,41.9,30.15,SE,135,0.0,173.0,54,0.00,,,0.00,meteohub,2013-11-07 03:17:00,
2013-11-06 19:22:00,58.5,41.9,30.15,SSW,203,173.0,173.0,54,0.00,,,0.00,meteohub,2013-11-07 03:22:00,
2013-11-06 19:43:00,58.3,40.8,30.15,North,0,0.0,172.0,52,0.00,,,0.00,meteohub,2013-11-07 03:43:00,
2013-11-06 19:55:00,58.3,40.3,30.14,North,0,0.0,172.0,51,0.00,,,0.00,meteohub,2013-11-07 03:55:00,
2013-11-06 20:00:00,58.1,40.1,30.15,North,0,0.0,172.0,51,0.00,,,0.00,meteohub,2013-11-07 04:00:00,
2013-11-06 20:05:00,58.1,40.6,30.14,North,0,0.0,172.0,52,0.00,,,0.00,meteohub,2013-11-07 04:05:00,
2013-11-06 20:11:00,58.1,40.6,30.14,North,0,1.0,172.0,52,0.00,,,0.00,meteohub,2013-11-07 04:11:00,
2013-11-06 20:16:00,58.1,40.6,30.14,SSW,203,172.0,172.0,52,0.00,,,0.00,meteohub,2013-11-07 04:16:00,
2013-11-06 20:21:00,58.1,40.6,30.14,NE,45,2.0,172.0,52,0.00,,,0.00,meteohub,2013-11-07 04:21:00,
2013-11-06 20:26:00,58.1,40.6,30.14,North,0,2.0,172.0,52,0.00,,,0.00,meteohub,2013-11-07 04:26:00,
2013-11-06 20:31:00,58.1,40.1,30.14,North,0,2.0,172.0,51,0.00,,,0.00,meteohub,2013-11-07 04:31:00,
2013-11-06 20:36:00,58.1,40.1,30.14,NE,45,2.0,172.0,51,0.00,,,0.00,meteohub,2013-11-07 04:36:00,
2013-11-06 20:41:00,58.1,40.1,30.14,SSW,203,173.0,173.0,51,0.00,,,0.00,meteohub,2013-11-07 04:41:00,
2013-11-06 20:48:00,58.1,39.6,30.14,East,90,1.0,173.0,50,0.00,,,0.00,meteohub,2013-11-07 04:48:00,
2013-11-06 20:54:00,57.9,39.4,30.14,SSW,203,173.0,173.0,50,0.00,,,0.00,meteohub,2013-11-07 04:54:00,
2013-11-06 21:03:00,57.7,39.7,30.14,SSW,203,173.0,173.0,51,0.00,,,0.00,meteohub,2013-11-07 05:03:00,
2013-11-06 21:04:00,57.7,39.7,30.14,SSW,203,173.0,173.0,51,0.00,,,0.00,meteohub,2013-11-07 05:04:00,
2013-11-06 21:05:00,57.7,39.7,30.14,SSW,203,173.0,173.0,51,0.00,,,0.00,meteohub,2013-11-07 05:05:00,
2013-11-06 21:16:00,57.2,39.2,30.14,East,90,0.0,173.0,51,0.00,,,0.00,meteohub,2013-11-07 05:16:00,
2013-11-06 21:18:00,57.2,39.2,30.14,SSW,203,173.0,173.0,51,0.00,,,0.00,meteohub,2013-11-07 05:18:00,
2013-11-06 21:23:00,57.2,39.2,30.15,SSW,203,172.0,173.0,51,0.00,,,0.00,meteohub,2013-11-07 05:23:00,
2013-11-06 21:28:00,57.0,39.0,30.15,SSW,203,173.0,173.0,51,0.00,,,0.00,meteohub,2013-11-07 05:28:00,
2013-11-06 21:34:00,57.0,39.0,30.15,SSW,203,173.0,173.0,51,0.00,,,0.00,meteohub,2013-11-07 05:34:00,
2013-11-06 21:50:00,56.7,38.7,30.15,East,90,0.0,173.0,51,0.00,,,0.00,meteohub,2013-11-07 05:50:00,
2013-11-06 21:55:00,56.7,38.7,30.15,SSW,203,172.0,173.0,51,0.00,,,0.00,meteohub,2013-11-07 05:55:00,
2013-11-06 22:00:00,56.8,39.4,30.15,SSW,203,172.0,173.0,52,0.00,,,0.00,meteohub,2013-11-07 06:00:00,
2013-11-06 22:06:00,56.8,39.4,30.15,NE,45,0.0,172.0,52,0.00,,,0.00,meteohub,2013-11-07 06:06:00,
2013-11-06 22:11:00,56.8,39.4,30.15,NE,45,0.0,172.0,52,0.00,,,0.00,meteohub,2013-11-07 06:11:00,
2013-11-06 22:16:00,56.8,39.4,30.15,NE,45,0.0,172.0,52,0.00,,,0.00,meteohub,2013-11-07 06:16:00,
2013-11-06 22:21:00,56.8,39.4,30.14,NE,45,0.0,172.0,52,0.00,,,0.00,meteohub,2013-11-07 06:21:00,
2013-11-06 22:26:00,56.7,39.2,30.14,NE,45,0.0,172.0,52,0.00,,,0.00,meteohub,2013-11-07 06:26:00,
2013-11-06 22:31:00,56.7,39.2,30.14,NE,45,0.0,0.0,52,0.00,,,0.00,meteohub,2013-11-07 06:31:00,
2013-11-06 22:37:00,56.7,39.2,30.14,SSW,203,172.0,0.0,52,0.00,,,0.00,meteohub,2013-11-07 06:37:00,
2013-11-06 22:42:00,56.7,39.2,30.14,NE,45,0.0,172.0,52,0.00,,,0.00,meteohub,2013-11-07 06:42:00,
2013-11-06 22:47:00,56.7,39.2,30.14,SSW,203,172.0,172.0,52,0.00,,,0.00,meteohub,2013-11-07 06:47:00,
2013-11-06 22:52:00,56.8,39.4,30.14,SSW,203,172.0,172.0,52,0.00,,,0.00,meteohub,2013-11-07 06:52:00,
2013-11-06 22:57:00,56.7,39.2,30.14,NE,45,0.0,172.0,52,0.00,,,0.00,meteohub,2013-11-07 06:57:00,
2013-11-06 23:02:00,56.7,38.7,30.14,NE,45,0.0,172.0,51,0.00,,,0.00,meteohub,2013-11-07 07:02:00,
2013-11-06 23:07:00,56.7,38.7,30.13,NE,45,0.0,172.0,51,0.00,,,0.00,meteohub,2013-11-07 07:07:00,
2013-11-06 23:12:00,56.5,39.0,30.13,NE,45,0.0,172.0,52,0.00,,,0.00,meteohub,2013-11-07 07:12:00,
2013-11-06 23:17:00,56.3,38.8,30.13,North,0,0.0,172.0,52,0.00,,,0.00,meteohub,2013-11-07 07:17:00,
2013-11-06 23:22:00,56.1,39.2,30.13,North,0,0.0,172.0,53,0.00,,,0.00,meteohub,2013-11-07 07:22:00,
2013-11-06 23:27:00,55.9,39.0,30.13,North,0,0.0,172.0,53,0.00,,,0.00,meteohub,2013-11-07 07:27:00,
2013-11-06 23:32:00,55.8,38.8,30.12,North,0,0.0,172.0,53,0.00,,,0.00,meteohub,2013-11-07 07:32:00,
2013-11-06 23:37:00,55.6,38.7,30.12,North,0,0.0,172.0,53,0.00,,,0.00,meteohub,2013-11-07 07:37:00,
2013-11-06 23:42:00,55.4,39.0,30.12,SSW,203,172.0,0.0,54,0.00,,,0.00,meteohub,2013-11-07 07:42:00,
2013-11-06 23:47:00,55.4,39.0,30.12,SSW,203,172.0,172.0,54,0.00,,,0.00,meteohub,2013-11-07 07:47:00,
2013-11-06 23:52:00,55.2,39.4,30.12,North,0,0.0,172.0,55,0.00,,,0.00,meteohub,2013-11-07 07:52:00,
2013-11-06 23:57:00,55.0,39.2,30.12,North,0,0.0,172.0,55,0.00,,,0.00,meteohub,2013-11-07 07:57:00,